This demonstration page uses our WeatherBlox Daily Observations layout. Learn more.

Hourly Observations for July 26, 2018

Temp ( °F °C ) Dew Point ( °F °C ) Humidity (%) Winds ( mph kmh ) Pressure ( in mb ) Visibility ( mi km ) Precip ( " mm )
12:15 am 00:15 Clear 69 20.5 68 19.8 96 96 ESE 6 9 30.06 1018 10 16.0934 0 0
12:35 am 00:35 Mostly Cloudy 68 20.2 68 19.8 98 98 Calm 30.06 1018 10 16.0934 0 0
12:55 am 00:55 Cloudy 68 20.1 68 20 99 99 Calm 30.09 1019 7 11.26538 0 0
1:15 am 01:15 Cloudy 68 20.2 68 20 99 99 ESE 3 6 30.09 1019 10 16.0934 0 0
1:35 am 01:35 Cloudy 68 20.2 67 19.6 96 96 NE 5 7 30.09 1019 10 16.0934 0 0
1:55 am 01:55 Cloudy 68 19.8 67 19.5 98 98 ENE 5 7 30.09 1019 10 16.0934 0 0
2:15 am 02:15 Partly Cloudy 67 19.7 66 19 96 96 NE 3 6 30.09 1019 10 16.0934 0 0
2:35 am 02:35 Mostly Cloudy with Light Rain 67 19.5 66 19.1 98 98 NNE 3 6 30.09 1019 10 16.0934 0 0
2:55 am 02:55 Cloudy with Light Thunderstorms 67 19.4 67 19.2 99 99 NE 10 17 30.09 1019 7 11.26538 0.01 0.254
3:15 am 03:15 Cloudy with Thunderstorms 66 18.8 65 18.2 96 96 NE 12 19 30.09 1019 10 16.0934 0.01 0.254
3:35 am 03:35 Cloudy with Heavy Rain 64 17.5 62 16.4 93 93 ENE 8 13 30.09 1019 5 8.0467 0.17 4.318
3:55 am 03:55 Cloudy with Light Rain 63 17.3 61 16.1 93 93 E 13 20 30.06 1018 10 16.0934 0.2 5.08
4:15 am 04:15 Mostly Cloudy 63 17.2 61 16 93 93 E 5 7 30.06 1018 10 16.0934 0 0
4:35 am 04:35 Partly Cloudy 62 16.7 61 16 96 96 NE 6 9 30.09 1019 10 16.0934 0 0
4:55 am 04:55 Mostly Cloudy 62 16.6 61 16 96 96 Calm 30.09 1019 10 16.0934 0 0
5:15 am 05:15 Mostly Cloudy 62 16.5 61 16.1 98 98 Calm 30.12 1020 10 16.0934 0 0
5:35 am 05:35 Cloudy 62 16.8 62 16.5 98 98 E 5 7 30.12 1020 10 16.0934 0 0
5:55 am 05:55 Cloudy 63 17.1 61 16.3 95 95 Calm 30.12 1020 10 16.0934 0 0
6:15 am 06:15 Cloudy 63 17 61 16.3 96 96 Calm 30.12 1020 10 16.0934 0 0
6:35 am 06:35 Cloudy 63 17 61 16.2 95 95 Calm 30.12 1020 10 16.0934 0 0
6:55 am 06:55 Cloudy 63 17.2 61 16 93 93 Calm 30.12 1020 10 16.0934 0 0
7:15 am 07:15 Cloudy 63 17.2 61 16.1 93 93 Calm 30.12 1020 10 16.0934 0 0
7:35 am 07:35 Cloudy 64 17.6 62 16.5 93 93 NNE 3 6 30.09 1019 10 16.0934 0 0
7:55 am 07:55 Cloudy 64 17.6 63 17.1 97 97 Calm 30.09 1019 10 16.0934 0 0
8:15 am 08:15 Mostly Cloudy 66 18.9 64 17.5 92 92 Calm 30.09 1019 10 16.0934 0 0
8:35 am 08:35 Mostly Cloudy 67 19.2 64 17.6 91 91 NE 3 6 30.09 1019 10 16.0934 0 0
8:55 am 08:55 Sunny 67 19.7 64 17.7 88 88 E 5 7 30.09 1019 10 16.0934 0 0
9:15 am 09:15 Partly Cloudy 69 20.6 63 17.3 81 81 ESE 6 9 30.09 1019 10 16.0934 0 0
9:35 am 09:35 Mostly Cloudy 70 21.3 61 16.3 73 73 E 6 9 30.09 1019 10 16.0934 0 0
9:55 am 09:55 Mostly Cloudy 71 21.9 60 15.7 68 68 SE 6 9 30.06 1018 10 16.0934 0 0
10:15 am 10:15 Partly Cloudy 71 21.6 61 16.1 71 71 ESE 5 7 30.06 1018 10 16.0934 0 0
10:35 am 10:35 Partly Cloudy 72 22 60 15.6 67 67 SE 5 7 30.06 1018 10 16.0934 0 0
10:55 am 10:55 Sunny 73 22.6 61 16.1 67 67 ESE 3 6 30.06 1018 10 16.0934 0 0
11:15 am 11:15 Sunny 73 23 60 15.4 62 62 E 5 7 30.09 1019 10 16.0934 0 0
11:35 am 11:35 Sunny 74 23.4 59 15 59 59 E 3 6 30.09 1019 10 16.0934 0 0
11:55 am 11:55 Sunny 74 23.4 58 14.6 58 58 E 3 6 30.09 1019 10 16.0934 0 0
12:15 pm 12:15 Sunny 76 24.2 60 15.6 59 59 E 7 11 30.09 1019 10 16.0934 0 0
12:35 pm 12:35 Sunny 75 23.9 60 15.3 59 59 ESE 3 6 30.09 1019 10 16.0934 0 0
12:55 pm 12:55 Sunny 76 24.4 60 15.5 58 58 ESE 5 7 30.06 1018 10 16.0934 0 0
1:15 pm 13:15 Sunny 76 24.6 59 14.8 55 55 SE 5 7 30.06 1018 10 16.0934 0 0
1:35 pm 13:35 Partly Cloudy 76 24.7 58 14.2 52 52 SSE 5 7 30.03 1017 10 16.0934 0 0
1:55 pm 13:55 Mostly Cloudy 77 25.1 59 15.2 54 54 SSE 6 9 30.03 1017 10 16.0934 0 0
2:15 pm 14:15 Partly Cloudy 77 25.1 59 14.9 53 53 E 6 9 30.03 1017 10 16.0934 0 0
2:35 pm 14:35 Mostly Cloudy 77 25.1 60 15.4 55 55 Calm 30.03 1017 10 16.0934 0 0
2:55 pm 14:55 Partly Cloudy 78 25.6 60 15.3 53 53 SSE 5 7 30.03 1017 10 16.0934 0 0
3:15 pm 15:15 Sunny 79 25.9 59 14.9 51 51 SE 5 7 30.03 1017 10 16.0934 0 0
3:35 pm 15:35 Sunny 78 25.5 58 14.5 51 51 ESE 7 11 30.03 1017 10 16.0934 0 0
3:55 pm 15:55 Sunny 78 25.8 60 15.3 52 52 E 6 9 30 1016 10 16.0934 0 0
4:15 pm 16:15 Sunny 78 25.8 60 15.6 53 53 ESE 5 7 30 1016 10 16.0934 0 0
4:35 pm 16:35 Partly Cloudy 79 26.2 59 14.9 50 50 SE 7 11 30 1016 10 16.0934 0 0
4:55 pm 16:55 Mostly Cloudy 79 26.1 60 15.6 52 52 ESE 5 7 30 1016 10 16.0934 0 0
5:15 pm 17:15 Mostly Cloudy 78 25.6 60 15.5 54 54 E 7 11 30 1016 10 16.0934 0 0
5:35 pm 17:35 Mostly Cloudy 78 25.6 60 15.4 53 53 E 6 9 30 1016 10 16.0934 0 0
5:55 pm 17:55 Mostly Cloudy 75 24.1 63 17.2 65 65 ENE 6 9 30.03 1017 10 16.0934 0 0
6:15 pm 18:15 Mostly Cloudy 74 23.1 64 17.7 72 72 ENE 6 9 30.03 1017 10 16.0934 0 0
6:35 pm 18:35 Mostly Cloudy with Light Rain 72 22.4 65 18.2 77 77 NNE 8 13 30.06 1018 10 16.0934 0 0
6:55 pm 18:55 Cloudy with Light Rain 70 21.3 65 18.6 85 85 ESE 7 11 30.03 1017 10 16.0934 0.01 0.254
7:15 pm 19:15 Partly Cloudy 70 21.3 65 18.2 83 83 SE 5 7 30.03 1017 10 16.0934 0 0
7:35 pm 19:35 Sunny 70 21.1 66 19 88 88 ENE 3 6 30.03 1017 10 16.0934 0 0
7:55 pm 19:55 Sunny 71 21.5 67 19.5 88 88 NE 7 11 30.03 1017 10 16.0934 0 0
8:15 pm 20:15 Sunny 69 20.5 66 19.1 92 92 NE 6 9 30.06 1018 10 16.0934 0 0
8:35 pm 20:35 Sunny 68 20 66 18.9 93 93 ENE 3 6 30.06 1018 10 16.0934 0 0
8:55 pm 20:55 Sunny 67 19.2 66 18.8 98 98 Calm 30.06 1018 10 16.0934 0 0
9:15 pm 21:15 Clear 66 19 65 18.6 98 98 Calm 30.06 1018 10 16.0934 0 0
9:35 pm 21:35 Clear 66 18.7 65 18.6 99 99 Calm 30.09 1019 10 16.0934 0 0
9:55 pm 21:55 Clear 65 18.6 65 18.3 98 98 Calm 30.09 1019 10 16.0934 0 0
10:15 pm 22:15 Clear 64 18 64 17.9 99 99 Calm 30.09 1019 10 16.0934 0 0
10:35 pm 22:35 Clear 63 17.2 63 17.2 100 100 NE 6 9 30.12 1020 10 16.0934 0 0
10:55 pm 22:55 Clear 64 18 64 18 100 100 Calm 30.09 1019 10 16.0934 0 0
11:15 pm 23:15 Clear 64 18 64 18 100 100 Calm 30.09 1019 10 16.0934 0 0
11:35 pm 23:35 Clear 63 17.2 63 17.2 100 100 Calm 30.12 1020 7 11.26538 0 0
11:55 pm 23:55 Clear with Mist and Fog 63 17.1 63 17.1 100 100 Calm 30.12 1020 5 8.0467 0 0

Powered by AerisWeather